パンスターズ彗星

C/2020 K5 ( PanSTARRS )

English version
Home page
Updated on June 29, 2020

---------------------------------------------------------------------

・ プロフィール

発見日 2020年5月25日
発見光度 20.7等
発見者 Pan-STARRS1 1.8-m Ritchey-Chretien reflector at Haleakala

・ 写真集

・ 軌道要素

Epoch 2021 May 26.0 TT = JDT 2459360.5
T 2021 June 5.49135 TT                                  Rudenko
q   1.5352350            (2000.0)            P               Q
z  -0.0012915      Peri.  249.58855     +0.33948864     +0.19791835
 +/-0.0000981      Node    86.15304     +0.00193708     +0.97746301
e   1.0019828      Incl.   67.16534     -0.94060816     +0.07344658
From 38 observations 2020 Apr. 3-June 11, mean residual 0".5.

・ 星図

・ 光度変化

        m1 = 11.0 + 5 logΔ + 10.0 log r

---------------------------------------------------------------------

軌道要素はM.P.E.C. 2020-M114に掲載されたものです。
星図はステラナビゲータ Ver.10 (アストロアーツ) で作成したものです。
光度グラフはComet for Windowsで作成したものです。

---------------------------------------------------------------------

Copyright(C) Seiichi Yoshida (comet@aerith.net). All rights reserved.